Theta_e
319 323 324 324 324 324 324 324 325 323 323 322 322 322 321 320 320 320 319 317 318 317
305 310 316 321 324 325 325 325 324 323 323 323 322 321 322 320 320 320 320 319 319 318
302 304 307 311 314 319 323 324 323 323 322 323 323 323 322 322 321 320 320 320 319 319
300 301 303 305 307 309 313 318 322 323 322 323 323 324 323 322 322 320 320 320 319 319
298 298 298 299 301 304 306 311 315 318 322 323 323 324 323 322 322 321 320 320 320 319
294 294 295 296 297 298 299 302 306 311 314 318 321 322 323 323 322 322 321 321 320 320
291 291 292 293 294 294 295 296 298 301 304 310 315 319 321 322 322 322 322 321 321 321
289 289 289 289 289 290 292 293 295 297 299 302 306 311 315 318 319 320 320 320 320 320
286 286 286 284 284 286 288 290 291 292 294 296 299 299 300 303 313 317 317 317 318 318
283 282 280 280 281 282 284 287 288 289 291 292 295 296 297 296 303 309 314 316 316 314
278 277 278 278 279 280 282 285 286 287 288 289 291 294 295 294 297 302 307 312 312 312
275 274 275 275 276 278 283 284 284 286 286 287 288 291 292 293 293 295 298 303 308 310
273 272 272 274 276 279 280 280 281 284 286 287 287 290 291 292 291 290 293 295 296 292
271 270 272 272 273 274 276 279 281 283 285 286 288 289 291 292 290 290 290 292 295 295
Wind_Speed
7 6 7 9 9 9 9 9 11 10 13 15 15 13 13 11 13 14 14 18 15 12
6 6 8 11 9 8 10 9 11 10 12 15 15 15 15 13 14 15 14 15 16 14
8 8 7 6 9 11 10 9 10 11 12 14 15 15 16 14 15 16 13 12 16 14
10 10 10 9 9 9 11 11 11 10 12 14 15 15 16 16 16 17 16 15 15 17
12 13 12 12 12 12 11 11 11 12 11 13 14 14 16 16 14 17 17 17 18 18
12 13 14 14 14 14 13 13 12 12 12 13 13 14 15 16 16 17 18 18 18 18
12 12 12 12 13 14 14 13 13 12 13 13 13 14 14 15 16 16 17 18 18 18
14 13 12 13 14 14 13 12 13 14 13 13 12 10 14 14 15 16 17 17 17 18
14 13 14 16 17 16 15 13 13 13 13 14 9 15 17 16 16 18 16 16 16 16
12 14 17 16 16 16 17 16 15 14 13 14 14 17 16 17 16 17 17 16 14 13
15 15 15 16 16 16 15 15 15 17 16 16 14 21 20 18 16 16 18 16 15 15
16 17 17 17 17 16 16 16 16 16 19 19 18 22 21 20 16 15 16 15 15 14
16 16 17 17 17 17 17 18 16 19 17 21 21 24 26 21 12 15 13 14 14 15
17 17 17 17 15 16 16 18 18 20 18 18 16 18 21 19 11 11 13 14 13 11
Wind_Direction
307 282 264 251 250 247 239 236 232 218 219 222 228 227 225 224 227 226 227 229 228 231
352 333 312 300 283 261 253 246 242 222 219 224 225 225 225 228 229 229 227 231 230 231
357 345 342 332 322 310 294 269 250 238 230 230 228 226 226 229 229 232 229 230 233 230
4 6 4 357 345 334 321 310 288 262 249 241 239 235 236 235 231 228 230 228 230 231
2 1 3 358 348 342 334 323 311 303 280 261 253 248 244 241 237 234 235 232 230 231
4 0 355 348 344 342 339 330 321 314 303 293 279 268 259 252 248 242 237 237 236 233
357 353 343 339 338 335 332 327 323 318 306 299 292 282 272 264 256 249 243 238 237 235
345 342 340 339 336 329 323 317 314 316 310 306 300 289 285 277 268 260 255 249 241 235
337 340 344 336 332 327 322 319 316 309 306 305 300 297 295 291 284 275 263 258 250 241
334 343 333 328 327 325 321 317 314 309 306 301 295 290 295 299 291 280 271 266 255 248
341 329 326 324 320 317 316 315 315 311 308 302 297 299 296 291 291 281 274 268 259 249
333 328 326 322 318 312 312 310 305 303 304 304 300 302 299 298 293 281 276 271 263 254
330 326 320 314 315 315 313 305 305 300 297 298 296 299 299 297 290 286 281 273 266 250
327 322 316 314 313 307 307 305 305 300 298 292 289 294 287 284 283 285 287 284 276 262